Weather in Usady

Russia / Republic of Tatarstan     55°59′41″N   49°18′21″E
temp.,
°C
wind,
m/s
gust,
m/s
humid.,
%
clouds,
%
prec.,
mm/h
press.,
hPa
HPBL,
m
17 may, tue
tue1700:00+9w3683100 0.0 1000195
03:00+6w369430 0.1 1000143
06:00+8w468754 0.0 1000302
09:00+12w346734 0.0 10001055
12:00+12wsw5465100 0.3 10001136
15:00+12w4463100 0.3 10001088
18:00+9ssw468399 0.5 1000352
21:00+7sw599397 1.9 1001367
18 may, wed
wed1800:00+7sw4796100 4.2 1000263
03:00+7wsw3597100 6.7 999240
06:00+7w469399 0.4 999350
09:00+8nne5894100 4.6 1000609
12:00+8n6985100 1.1 10021083
15:00+9nnw6876100 1.4 10031164
18:00+8nw5880100 0.6 1005718
21:00+6nw4986100 0.8 1006383
19 may, thu
thu1900:00+5wnw3688100 0.1 1007160
03:00+4nw4791100 0.1 1007308
06:00+4wnw478384 0.3 1008521
09:00+7wnw4667100 0.4 10081288
12:00+7w4577100 1.2 1008894
15:00+9wnw5561100 2.1 10081341
18:00+8wnw477660 1.3 1008676
21:00+4wnw4108923 1.6 1009262
20 may, fri
fri2000:00+2wnw38946 0.0 1010180
03:00+1wnw379296 0.0 1010148
06:00+3wnw5786100 0.0 1010366
09:00+7nw5567100 0.2 10101118
12:00+8nnw7863100 1.4 10111419
15:00+7nnw797055 2.8 10111320
18:00+5nnw6985100 0.4 1012777
21:00+3nnw5990100 0.4 1013524
21 may, sat
sat2100:00+3nw3994100 0.0 1012390
03:00+2wnw51193100 0.0 1011401
06:00+2nw61181100 0.0 1011640
09:00+5nw7964100 0.0 10111332
12:00+6nnw7860100 0.1 10111545
15:00+6nnw6859100 0.1 10111529
18:00+6n4769100 0.1 10111029
21:00+2n378741 0.1 1012176